THORAD DELTA 1 DEB, 8146

Orbit data source: Space-Track

THORAD DELTA 1 DEB, 8146 is space debris in SSO originally from a launch on Fri, 15 Nov 1974 UTC launched from the Air Force Western Test Range (AFWTR). Debris objects in space refer to the collection of defunct objects orbiting the Earth. Examples of debris include non-operational satellites, rocket bodies, and fragments generated from explosions, collisions, or faulty payload assembly.

Loading next visibility...
Identifier
8146, 1974-089Q
Orbit
SSO
Country
Flag of USUS
Related business
Manufacturer
Unknown
Mission
Spacecraft
Bus & Motor
Unknown
Mass
Unknown
Launch date (UTC)
1974-11-15 (51 years ago)
Launch vehicle
Unknown
Launch site
Air Force Western Test Range (AFWTR)
Object type
Payload
Rocket body
Debris
Shape & HBR
Unknown shape, 0.2 m
Radar Cross Section
Medium (>0.1 m² and <1 m²)

Expand to show TLE details & history
Last TLE update: 5 hours ago

TLE from 5 hours ago
0 THORAD DELTA 1 DEB
1  8146U 74089Q   25304.81951860  .00000010  00000-0  33214-3 0  9996
2  8146 101.9940 294.8456 0185590 220.6324 212.7543 12.54896465332473
Epoch: 2025-10-31T19:40Z
TLE epoch observation values (Epoch: 2025-10-31T19:40:06.407Z)
Latitude
68.76981°
Longitude
-73.51125°
Altitude
1,578.686 km
Speed
7.029 km/s
True Right ascension
17h 27m 29s
True Declination
68° 39' 56"
Sunlit
Object was in daylight at epoch
Visualization orbit readout
Latitude
Unknown
Longitude
Unknown
Altitude
Unknown
Speed
Unknown
Apparent Right ascension
Unknown
Apparent Declination
Unknown
Sunlit
N/A
Visualization observer readout
Local Sidereal Time
20:13:58
Azimuth
Unknown
Elevation
Unknown
Doppler factor
Unknown
Orbital elements
Apogee altitude
1,586.762 km
Perigee altitude
1,296.507 km
Semi-major axis
7,819.772 km
Eccentricity
0.01856
Inclination
101.994°
RAAN
294.8456°
Arg. of periapsis
220.6324°
True anomaly
211.62578°
Mean anomaly
212.7543°
Eccentric anomaly
212.18786°
Mean motion
3.13872 °/min
Orbital period
114.7 mins
BSTAR
0.00033214
Loading maneuver chart data...
Computing Atmospheric mass density...

Documentation

Showing up to 5 results
|